[[{"header":{"parameterUnit":"m.s-1","parameterCategory":2,"la1":30.2991,"la2":30.254,"lo1":-89.0895,"lo2":-89.0444,"dx":0.0017,"dy":0.0017,"nx":28,"ny":28,"refTime":"2022-12-30T15:00:00:Z","depth":"0","parameterNumber":2,"parameterNumberName":"U-component_of_CURRENTS"},"data":[0,0,0,0,0,0,0,0,0,0,0,0,0,0,0,0,0,0,0,0,0,0,0,0,0,0,0,0,0,0,0,0,0,0,0,0,0,0,0,0,0,0,0,0,0,0,0,0,0,0,0,0,0,0,0,0,0,0,0.1839,0.1839,0,0.1791,0.1791,0.179,0.1759,0.1759,0.176,0.176,0.1695,0.1693,0.1691,0,0,0,0,0,0,0,0,0,0,0,0,0,0.1917,0.1915,0.1839,0.1839,0.1838,0.1791,0.1791,0.179,0.1759,0.1759,0.176,0.176,0.1695,0.1693,0.1691,0,0,0,0,0,0,0,0,0,0,0,0,0,0.1875,0.1915,0.1839,0.1819,0.1817,0.1792,0.179,0.1789,0.1759,0.1759,0.176,0.176,0.1696,0.1693,0.1691,0.1672,0,0,0.1683,0.1681,0,0,0,0,0,0,0,0,0.1877,0.1872,0.1823,0.1821,0.1819,0.1784,0.1794,0.175,0.1759,0.1778,0.176,0.176,0.1725,0.172,0.1707,0.1669,0.1666,0.1682,0.1681,0.168,0.1679,0,0,0,0,0,0,0,0.188,0.1874,0.1817,0.1822,0.182,0.1818,0.1812,0.1786,0.1749,0.1777,0.1775,0.1774,0.1723,0.1709,0.1705,0.1665,0.1682,0.168,0.1678,0.1677,0.1639,0.164,0,0,0,0,0,0,0.189,0.1876,0.1819,0.1816,0.1852,0.1817,0.1809,0.1793,0.175,0.1744,0.1774,0.1773,0.1714,0.1708,0.1703,0.1696,0.168,0.1677,0.1675,0.1639,0.1639,0.164,0,0,0,0,0,0,0.1892,0.1885,0.1821,0.1848,0.184,0.1815,0.1797,0.1792,0.1779,0.1748,0.1742,0.1768,0.1714,0.1706,0.1683,0.1692,0.1676,0.1673,0.1638,0.1639,0.164,0.167,0,0,0,0,0,0,0.1894,0.1885,0.1875,0.1848,0.1839,0.1806,0.1797,0.1791,0.178,0.1778,0.1741,0.1735,0.1713,0.1687,0.168,0.1688,0.1671,0.1637,0.1638,0.1639,0.1669,0.1672,0.1675,0,0,0,0,0,0.1897,0.1878,0.1874,0.1868,0.1826,0.1806,0.1801,0.1782,0.178,0.1772,0.1751,0.1736,0.169,0.1685,0.1677,0.1684,0.1637,0.1638,0.1639,0.1667,0.1671,0.1675,0,0,0,0,0,0,0.1902,0.1873,0.1868,0.184,0.1828,0.1802,0.1791,0.1785,0.1761,0.1759,0.1733,0.1725,0.171,0.1694,0.1689,0.1679,0.1665,0.1665,0.1689,0.1693,0.1696,0.1723,0.1669,0,0,0,0,0,0.1901,0.1879,0.186,0.1839,0.1833,0.1815,0.1805,0.1795,0.1775,0.1764,0.1741,0.1722,0.1709,0.1698,0.1678,0.1665,0.1793,0.167,0.1673,0.1676,0.1694,0.1895,0.192,0.1644,0.1644,0.1644,0,0,0.1896,0.1879,0.1865,0.1839,0.1825,0.1809,0.1808,0.1793,0.1781,0.1761,0.1735,0.1727,0.1708,0.1696,0.169,0.1683,0.1836,0.1678,0.168,0.1697,0.19,0.1927,0.1952,0.1645,0.1645,0.1645,0,0,0.188,0.1862,0.1843,0.1832,0.1818,0.1806,0.1805,0.1784,0.1778,0.1756,0.1749,0.1761,0.1712,0.1723,0.1718,0.1731,0.1846,0.1714,0.1751,0.1946,0.1972,0.1996,0.227,0.2318,0.1717,0.1717,0.1717,0,0.1878,0.1848,0.1837,0.1822,0.1808,0.1805,0.1787,0.178,0.1756,0.1769,0.175,0.1767,0.1734,0.1773,0.1761,0.1741,0.1903,0.1734,0.1957,0.1983,0.2007,0.2281,0.2334,0.1719,0.1719,0.1719,0.1719,0,0.1849,0.183,0.1819,0.1794,0.1781,0.1764,0.1758,0.1756,0.1751,0.1762,0.1802,0.1798,0.1826,0.1808,0.1771,0.1908,0.1991,0.1944,0.1958,0.2038,0.2321,0.2376,0.1721,0.1721,0.172,0.172,0,0,0.1835,0.1803,0.1799,0.1784,0.1764,0.1747,0.1744,0.1752,0.1794,0.1793,0.1881,0.184,0.1891,0.189,0.1891,0.2023,0.2326,0.2046,0.2056,0.234,0.2856,0.2778,0.2831,0.2331,0.2339,0.2345,0.3015,0,0.1817,0.1777,0.1767,0.1734,0.1715,0.1716,0.1722,0.1738,0.1779,0.1871,0.1924,0.2,0.1911,0.1968,0.208,0.2258,0.2459,0.2154,0.2716,0.2735,0.2671,0.2885,0.2772,0.3344,0.3069,0.3078,0.3084,0,0.1798,0.1772,0.1731,0.1715,0.1709,0.1694,0.1732,0.1745,0.1872,0.1929,0.2039,0.2117,0.2295,0.2225,0.2632,0.2453,0.2662,0.2809,0.2838,0.2784,0.2753,0.3201,0.3455,0.3333,0.3169,0.3163,0.3156,0,0.1789,0.175,0.1712,0.1699,0.1684,0.1679,0.1682,0.1765,0.184,0.202,0.2163,0.234,0.2529,0.2759,0.2979,0.2874,0.3479,0.3388,0.355,0.3553,0.3573,0.356,0.3781,0.3745,0.3744,0.3742,0.374,0,0.1773,0.1749,0.1704,0.1683,0.1675,0.167,0.1724,0.177,0.1941,0.2112,0.2218,0.245,0.2675,0.2995,0.3153,0.3535,0.3649,0.3643,0.3726,0.3582,0.3561,0.3538,0.3444,0.3767,0.3762,0.3757,0.3752,0,0.1781,0.1745,0.1709,0.1674,0.1671,0.1668,0.1743,0.1831,0.1981,0.2245,0.234,0.2667,0.3073,0.33,0.3761,0.3814,0.4054,0.4235,0.4069,0.4112,0.4041,0.3952,0.4146,0.4082,0.4591,0.4593,0.4595,0,0.1791,0.1766,0.1707,0.1696,0.1678,0.1687,0.1737,0.1842,0.1988,0.2389,0.2572,0.301,0.3299,0.3911,0.4102,0.4465,0.4259,0.4551,0.4258,0.409,0.4059,0.3799,0.371,0.4392,0.4392,0.4392,0.4392,0,0.1818,0.1783,0.1743,0.1723,0.1735,0.1778,0.187,0.1996,0.2216,0.2454,0.2865,0.3123,0.3674,0.3958,0.4327,0.4506,0.4292,0.4557,0.4457,0.3988,0.3661,0.3617,0.3944,0.4391,0.4391,0.4391,0.4391,0.4391,0.1851,0.1823,0.1773,0.1762,0.1782,0.1888,0.195,0.2118,0.2353,0.2708,0.2987,0.3302,0.3701,0.4187,0.4354,0.4475,0.4379,0.4387,0.4351,0.4144,0.3855,0.4172,0.4589,0.459,0.4591,0.4592,0.4593,0,0.1909,0.1863,0.1833,0.1821,0.1866,0.1885,0.2063,0.2153,0.2407,0.2697,0.2986,0.3375,0.3689,0.3987,0.4269,0.4236,0.4086,0.4173,0.3809,0.3778,0.4203,0.3948,0.4148,0.4148,0.4148,0.4148,0.4148,0.4148,0.1937,0.19,0.1866,0.1914,0.1926,0.2025,0.2128,0.2257,0.2422,0.2704,0.2888,0.307,0.3441,0.3863,0.3984,0.3974,0.3721,0.3606,0.3596,0.3877,0.3891,0.3903,0.364,0.3772,0.3771,0.3025,0.302,0.3016]},{"header":{"parameterUnit":"m.s-1","parameterCategory":2,"la1":30.2991,"la2":30.254,"lo1":-89.0895,"lo2":-89.0444,"dx":0.0017,"dy":0.0017,"nx":28,"ny":28,"refTime":"2022-12-30T15:00:00:Z","depth":"0","parameterNumber":3,"parameterNumberName":"V-component_of_CURRENTS"},"data":[0,0,0,0,0,0,0,0,0,0,0,0,0,0,0,0,0,0,0,0,0,0,0,0,0,0,0,0,0,0,0,0,0,0,0,0,0,0,0,0,0,0,0,0,0,0,0,0,0,0,0,0,0,0,0,0,0,0,-0.2026,-0.2026,0,-0.2019,-0.2019,-0.2018,-0.2012,-0.2012,-0.2012,-0.2012,-0.1967,-0.1966,-0.1965,0,0,0,0,0,0,0,0,0,0,0,0,0,-0.2086,-0.2084,-0.2026,-0.2026,-0.2026,-0.2019,-0.2019,-0.2018,-0.2012,-0.2012,-0.2012,-0.2012,-0.1968,-0.1966,-0.1965,0,0,0,0,0,0,0,0,0,0,0,0,0,-0.2066,-0.2084,-0.2026,-0.2023,-0.2022,-0.2019,-0.2019,-0.2018,-0.2012,-0.2012,-0.2012,-0.2012,-0.1968,-0.1966,-0.1965,-0.1952,0,0,-0.1959,-0.1958,0,0,0,0,0,0,0,0,-0.2067,-0.2064,-0.2023,-0.2023,-0.2023,-0.2017,-0.2023,-0.1995,-0.2012,-0.2015,-0.2012,-0.2012,-0.1981,-0.1978,-0.1976,-0.195,-0.1948,-0.1959,-0.1958,-0.1957,-0.1956,0,0,0,0,0,0,0,-0.2068,-0.2064,-0.2022,-0.2023,-0.2023,-0.204,-0.2036,-0.2018,-0.1996,-0.2015,-0.2014,-0.2015,-0.1981,-0.1978,-0.1975,-0.1948,-0.1959,-0.1957,-0.1956,-0.1955,-0.1848,-0.1846,0,0,0,0,0,0,-0.2069,-0.2065,-0.2022,-0.2022,-0.2047,-0.2038,-0.2035,-0.2018,-0.1997,-0.1995,-0.2015,-0.2015,-0.1981,-0.1977,-0.1973,-0.1902,-0.1957,-0.1955,-0.1954,-0.1849,-0.1847,-0.1845,0,0,0,0,0,0,-0.2069,-0.2064,-0.2022,-0.2046,-0.2042,-0.2037,-0.2019,-0.2018,-0.2017,-0.1999,-0.1995,-0.2016,-0.1981,-0.1976,-0.1958,-0.1902,-0.1954,-0.1953,-0.1851,-0.1849,-0.1846,-0.1795,0,0,0,0,0,0,-0.2071,-0.2064,-0.2059,-0.2045,-0.204,-0.2018,-0.2019,-0.2018,-0.2018,-0.2018,-0.1998,-0.1994,-0.198,-0.196,-0.1956,-0.1901,-0.1951,-0.1854,-0.185,-0.1847,-0.1799,-0.1791,-0.1784,0,0,0,0,0,-0.2073,-0.2063,-0.2059,-0.2054,-0.2031,-0.2018,-0.2017,-0.2014,-0.2019,-0.2015,-0.2004,-0.1995,-0.1935,-0.1959,-0.1953,-0.1896,-0.1855,-0.1851,-0.1847,-0.1802,-0.1792,-0.1784,0,0,0,0,0,0,-0.2092,-0.2062,-0.2056,-0.2039,-0.2029,-0.2017,-0.2017,-0.2017,-0.2006,-0.2004,-0.1991,-0.1986,-0.1947,-0.1934,-0.1961,-0.1854,-0.1885,-0.188,-0.1852,-0.1843,-0.1836,-0.1753,-0.195,0,0,0,0,0,-0.2093,-0.2073,-0.2054,-0.2042,-0.2036,-0.2028,-0.2026,-0.2019,-0.2008,-0.2004,-0.1992,-0.1963,-0.1925,-0.1899,-0.188,-0.1828,-0.1739,-0.1782,-0.1774,-0.1768,-0.1696,-0.1538,-0.1508,-0.1832,-0.1832,-0.1832,0,0,-0.2098,-0.208,-0.207,-0.2045,-0.2037,-0.2006,-0.2026,-0.2016,-0.1978,-0.1999,-0.1956,-0.1953,-0.1913,-0.1856,-0.1833,-0.1836,-0.1633,-0.1763,-0.1758,-0.1688,-0.153,-0.1498,-0.1469,-0.183,-0.183,-0.1831,0,0,-0.2088,-0.208,-0.2054,-0.2039,-0.2022,-0.2005,-0.2002,-0.1987,-0.1969,-0.194,-0.1929,-0.1884,-0.1858,-0.1788,-0.1753,-0.1688,-0.1616,-0.1695,-0.1567,-0.1417,-0.1387,-0.136,-0.1221,-0.1181,-0.1671,-0.1671,-0.1671,0,-0.2094,-0.2047,-0.2049,-0.2019,-0.1984,-0.1999,-0.1947,-0.1935,-0.1916,-0.1849,-0.1919,-0.1785,-0.1802,-0.1636,-0.1632,-0.1663,-0.1569,-0.1612,-0.1402,-0.1373,-0.1346,-0.1209,-0.1166,-0.1668,-0.1668,-0.1669,-0.1669,0,-0.2055,-0.2017,-0.2003,-0.1948,-0.1919,-0.1886,-0.1853,-0.1815,-0.1806,-0.1762,-0.164,-0.165,-0.153,-0.1558,-0.1586,-0.1385,-0.1379,-0.143,-0.1419,-0.1309,-0.1174,-0.113,-0.1664,-0.1665,-0.1666,-0.1667,0,0,-0.2039,-0.1982,-0.1969,-0.1902,-0.1868,-0.1815,-0.1746,-0.1631,-0.1488,-0.1519,-0.1315,-0.1327,-0.1295,-0.125,-0.1262,-0.1164,-0.0959,-0.1212,-0.1205,-0.1059,-0.0601,-0.0634,-0.059,-0.0968,-0.096,-0.0954,-0.0589,0,-0.1991,-0.1907,-0.1882,-0.1761,-0.1698,-0.1652,-0.1545,-0.1446,-0.1362,-0.1182,-0.1157,-0.0999,-0.1184,-0.1084,-0.1027,-0.0952,-0.0836,-0.105,-0.0736,-0.0726,-0.0757,-0.0538,-0.0502,-0.0175,-0.0546,-0.0538,-0.0533,0,-0.193,-0.1875,-0.1764,-0.1588,-0.1545,-0.1468,-0.1218,-0.1116,-0.09,-0.0814,-0.0675,-0.0637,-0.0482,-0.0663,-0.0463,-0.0586,-0.0569,-0.0554,-0.054,-0.0538,-0.0674,-0.0341,-0.0081,-0.0386,-0.0465,-0.0471,-0.0475,0,-0.1869,-0.1755,-0.1647,-0.1608,-0.1446,-0.1334,-0.1211,-0.0995,-0.0788,-0.0528,-0.0318,-0.0209,-0.0036,-0.0038,-0.0078,-0.0217,0.0153,-0.0031,-0.0032,-0.0035,0.0082,0.0075,0.011,0.0165,0.0164,0.0163,0.0162,0,-0.1791,-0.1688,-0.1604,-0.1537,-0.1328,-0.1229,-0.092,-0.0784,-0.0455,-0.0101,-0.0096,0.0227,0.0138,0.0294,0.015,0.0236,0.0348,0.0093,0.01,0.0092,0.0082,-0.0115,-0.0308,0.0177,0.0174,0.0171,0.0169,0,-0.1711,-0.1677,-0.1533,-0.1371,-0.1299,-0.1133,-0.0761,-0.0484,-0.0221,0.0259,0.0383,0.0661,0.0877,0.0764,0.0856,0.0623,0.0523,0.0627,0.0608,0.0602,0.0205,0.0015,0.0223,0.01,0.0704,0.0706,0.0707,0,-0.1651,-0.1587,-0.143,-0.1305,-0.1221,-0.0957,-0.0715,-0.0414,-0.0056,0.0564,0.0857,0.1191,0.1509,0.1579,0.1261,0.1104,0.0766,0.0953,0.0655,0.029,0.0085,-0.0044,-0.0176,0.0839,0.0841,0.0843,0.0845,0,-0.1524,-0.1494,-0.1381,-0.1165,-0.0943,-0.0612,-0.023,0.0086,0.0573,0.1017,0.1676,0.1977,0.2047,0.1954,0.1634,0.1439,0.0736,0.0986,0.0671,0.0285,0.0108,-0.0046,0.0449,0.0864,0.0862,0.0861,0.086,0.0859,-0.1413,-0.1324,-0.1188,-0.0953,-0.069,-0.0218,0.0182,0.065,0.127,0.2059,0.2228,0.2728,0.2383,0.199,0.1697,0.0974,0.093,0.0681,0.0522,0.0455,0.0219,0.0732,0.1071,0.107,0.107,0.1069,0.1069,0,-0.1238,-0.1135,-0.0937,-0.0595,-0.0212,-0.0098,0.0576,0.1067,0.1849,0.2391,0.2956,0.2999,0.2563,0.1956,0.102,0.055,0.0337,0.0264,0.0069,-0.0023,0.0534,0.0403,0.0538,0.0538,0.0539,0.0539,0.0539,0.0539,-0.1127,-0.0932,-0.0839,-0.0225,0.009,0.0773,0.1224,0.1864,0.2363,0.3106,0.337,0.3491,0.2886,0.1278,0.0184,-0.0026,-0.0451,-0.0409,-0.0671,-0.0395,-0.0372,-0.035,-0.0521,-0.0582,-0.0583,-0.1161,-0.1167,-0.1172]}],[{"header":{"parameterUnit":"m.s-1","parameterCategory":2,"la1":30.2991,"la2":30.254,"lo1":-89.0895,"lo2":-89.0444,"dx":0.0017,"dy":0.0017,"nx":28,"ny":28,"refTime":"2022-12-30T15:00:00:Z","depth":"2","parameterNumber":2,"parameterNumberName":"U-component_of_CURRENTS"},"data":[0,0,0,0,0,0,0,0,0,0,0,0,0,0,0,0,0,0,0,0,0,0,0,0,0,0,0,0,0,0,0,0,0,0,0,0,0,0,0,0,0,0,0,0,0,0,0,0,0,0,0,0,0,0,0,0,0,0,0.1838,0.1838,0,0.1856,0.1856,0.1856,0.182,0.1819,0.1818,0.1817,0.1761,0.1761,0.176,0,0,0,0,0,0,0,0,0,0,0,0,0,0.1771,0.1772,0.1838,0.1838,0.1839,0.1856,0.1856,0.1856,0.182,0.1819,0.1818,0.1817,0.1761,0.1761,0.176,0,0,0,0,0,0,0,0,0,0,0,0,0,0.1794,0.1773,0.1838,0.1824,0.1823,0.1856,0.1856,0.1856,0.1821,0.1819,0.1818,0.1816,0.1762,0.1761,0.176,0.1786,0,0,0.1758,0.1757,0,0,0,0,0,0,0,0,0.1793,0.1796,0.1826,0.1825,0.1824,0.1835,0.1811,0.1829,0.1821,0.182,0.1817,0.1815,0.1781,0.1779,0.1785,0.1783,0.1781,0.1758,0.1757,0.1757,0.1756,0,0,0,0,0,0,0,0.1791,0.1795,0.1843,0.1826,0.1825,0.1816,0.1818,0.1815,0.1807,0.182,0.1818,0.1823,0.178,0.1786,0.1783,0.178,0.1758,0.1757,0.1756,0.1756,0.1821,0.1823,0,0,0,0,0,0,0.1794,0.1794,0.1843,0.1844,0.1806,0.1819,0.182,0.1832,0.1808,0.1804,0.1824,0.1821,0.1788,0.1784,0.1781,0.1834,0.1757,0.1756,0.1756,0.1819,0.1821,0.1824,0,0,0,0,0,0,0.1793,0.1799,0.1842,0.182,0.1825,0.1822,0.1835,0.1833,0.1825,0.1812,0.1806,0.1815,0.1786,0.1782,0.1785,0.1831,0.1756,0.1755,0.1816,0.1819,0.1822,0.1926,0,0,0,0,0,0,0.1791,0.1798,0.1802,0.1821,0.1826,0.1863,0.1837,0.1835,0.1831,0.1827,0.1803,0.1797,0.1785,0.1787,0.1785,0.1828,0.1754,0.1813,0.1817,0.1821,0.192,0.1932,0.1943,0,0,0,0,0,0.1789,0.181,0.1802,0.1807,0.1834,0.1865,0.1867,0.1858,0.1832,0.184,0.1828,0.1797,0.1812,0.1788,0.1785,0.1829,0.1811,0.1816,0.1821,0.1914,0.193,0.1943,0,0,0,0,0,0,0.1776,0.1809,0.18,0.1827,0.1842,0.1859,0.1868,0.1855,0.1853,0.1841,0.1817,0.1813,0.1841,0.1818,0.1792,0.1862,0.181,0.1814,0.1882,0.1896,0.1908,0.194,0.1754,0,0,0,0,0,0.1777,0.1803,0.1824,0.1842,0.1854,0.1856,0.1862,0.1857,0.1861,0.1856,0.1835,0.1831,0.1864,0.1862,0.1871,0.1897,0.1941,0.1927,0.1939,0.1949,0.1975,0.2127,0.2156,0.184,0.184,0.184,0,0,0.1774,0.1797,0.1808,0.1841,0.1851,0.1883,0.1855,0.1872,0.189,0.1852,0.1856,0.1866,0.1881,0.1925,0.1935,0.1905,0.2053,0.1955,0.1963,0.1984,0.2135,0.2167,0.2195,0.1843,0.1843,0.1842,0,0,0.1797,0.1806,0.1837,0.1857,0.188,0.1893,0.1895,0.1903,0.1899,0.1908,0.1914,0.196,0.1943,0.2005,0.2029,0.211,0.2115,0.2093,0.2174,0.2322,0.235,0.2376,0.2438,0.2468,0.2094,0.2095,0.2095,0,0.1785,0.183,0.1848,0.1884,0.19,0.1899,0.1929,0.1944,0.1944,0.197,0.1912,0.2008,0.2,0.2139,0.2161,0.2142,0.2194,0.2118,0.2342,0.2368,0.2392,0.245,0.2483,0.21,0.21,0.2099,0.2099,0,0.1838,0.1864,0.1886,0.1935,0.1957,0.1983,0.2009,0.2022,0.2003,0.203,0.2118,0.2138,0.2205,0.2216,0.2203,0.2385,0.2352,0.2346,0.2312,0.2431,0.2483,0.2515,0.2108,0.2106,0.2105,0.2103,0,0,0.1828,0.1906,0.1908,0.193,0.198,0.2002,0.2055,0.212,0.2176,0.2186,0.2282,0.2352,0.2377,0.2409,0.243,0.2544,0.2733,0.2511,0.2516,0.2581,0.3015,0.2777,0.2787,0.2775,0.2782,0.2788,0.2969,0,0.1852,0.1919,0.1956,0.2008,0.2041,0.2071,0.2124,0.2184,0.2229,0.232,0.2405,0.2497,0.2451,0.2499,0.2616,0.2724,0.2827,0.2681,0.2881,0.2886,0.267,0.2821,0.2551,0.2673,0.3,0.3005,0.3009,0,0.1889,0.1927,0.198,0.2045,0.2062,0.2089,0.2184,0.2241,0.2395,0.2438,0.2574,0.2636,0.2825,0.2749,0.3016,0.2926,0.2976,0.3037,0.3046,0.2816,0.2709,0.2613,0.2718,0.3062,0.3058,0.3054,0.3051,0,0.1873,0.1942,0.1977,0.1997,0.2078,0.2097,0.2141,0.227,0.2358,0.2542,0.2644,0.2841,0.2965,0.3101,0.3185,0.3133,0.3452,0.3397,0.3231,0.3212,0.3016,0.2966,0.3593,0.3593,0.3592,0.3592,0.3591,0,0.1895,0.1922,0.1959,0.1979,0.202,0.2079,0.2172,0.2248,0.2425,0.2592,0.2711,0.2893,0.3069,0.3243,0.3286,0.335,0.354,0.3282,0.3273,0.3032,0.2984,0.3344,0.3312,0.3599,0.3597,0.3596,0.3595,0,0.1894,0.1921,0.1956,0.2005,0.2014,0.2042,0.2168,0.2266,0.2424,0.2656,0.2732,0.3003,0.3226,0.3339,0.3575,0.3465,0.3553,0.3515,0.316,0.3102,0.3182,0.3154,0.3372,0.3365,0.336,0.3356,0.3352,0,0.1912,0.193,0.1952,0.1964,0.1977,0.2034,0.2093,0.224,0.238,0.2734,0.2864,0.3135,0.3295,0.3482,0.3402,0.3404,0.3528,0.3083,0.2918,0.3205,0.3176,0.3156,0.3135,0.2706,0.2698,0.2691,0.2685,0,0.1944,0.1934,0.1956,0.1978,0.2003,0.2067,0.217,0.2276,0.2514,0.2712,0.3008,0.3151,0.3275,0.3168,0.3085,0.3032,0.3045,0.2927,0.3449,0.2748,0.2578,0.2547,0.2551,0.2622,0.2628,0.2633,0.2636,0.2639,0.1953,0.1967,0.1988,0.2008,0.2037,0.2107,0.216,0.2324,0.2527,0.2739,0.2933,0.2987,0.2954,0.269,0.2612,0.2487,0.2667,0.2496,0.2521,0.2553,0.2388,0.2212,0.2154,0.2158,0.2161,0.2163,0.2166,0,0.199,0.2011,0.2033,0.2055,0.208,0.2098,0.2229,0.2286,0.2485,0.2556,0.2678,0.2388,0.2262,0.2277,0.1979,0.186,0.1864,0.1782,0.182,0.1881,0.1936,0.1743,0.1337,0.1335,0.1333,0.1332,0,0,0.2014,0.2048,0.2061,0.2096,0.2103,0.2125,0.2175,0.2248,0.2289,0.2246,0.2146,0.2121,0.2179,0.1754,0.1652,0.1496,0.1687,0.1403,0.2061,0.2171,0.2224,0.2324,0.2089,0,0,0,0,0]},{"header":{"parameterUnit":"m.s-1","parameterCategory":2,"la1":30.2991,"la2":30.254,"lo1":-89.0895,"lo2":-89.0444,"dx":0.0017,"dy":0.0017,"nx":28,"ny":28,"refTime":"2022-12-30T15:00:00:Z","depth":"2","parameterNumber":3,"parameterNumberName":"V-component_of_CURRENTS"},"data":[0,0,0,0,0,0,0,0,0,0,0,0,0,0,0,0,0,0,0,0,0,0,0,0,0,0,0,0,0,0,0,0,0,0,0,0,0,0,0,0,0,0,0,0,0,0,0,0,0,0,0,0,0,0,0,0,0,0,0.0627,0.0626,0,0.0538,0.0537,0.0535,0.0444,0.0442,0.0441,0.044,0.0309,0.0307,0.0304,0,0,0,0,0,0,0,0,0,0,0,0,0,0.0665,0.0665,0.0627,0.0626,0.0625,0.0538,0.0537,0.0535,0.0444,0.0442,0.0441,0.044,0.031,0.0307,0.0304,0,0,0,0,0,0,0,0,0,0,0,0,0,0.0618,0.0665,0.0627,0.057,0.0564,0.0538,0.0536,0.0535,0.0444,0.0442,0.0441,0.0439,0.0311,0.0307,0.0304,0.0315,0,0,0.0293,0.0291,0,0,0,0,0,0,0,0,0.0621,0.0617,0.0579,0.0574,0.0567,0.0501,0.0502,0.046,0.0445,0.0488,0.044,0.0438,0.0372,0.0363,0.0349,0.0309,0.0303,0.0292,0.029,0.0288,0.0287,0,0,0,0,0,0,0,0.0624,0.062,0.059,0.0579,0.0571,0.053,0.0522,0.0493,0.0439,0.0484,0.0478,0.0471,0.0368,0.0352,0.0345,0.0301,0.0292,0.0289,0.0287,0.0285,0.0245,0.0246,0,0,0,0,0,0,0.0643,0.0623,0.0593,0.0588,0.0592,0.0531,0.0522,0.0523,0.044,0.0426,0.0472,0.0467,0.0359,0.0349,0.034,0.0342,0.0288,0.0285,0.0283,0.0244,0.0245,0.0246,0,0,0,0,0,0,0.0644,0.0642,0.0597,0.0604,0.0595,0.0533,0.0534,0.0522,0.0504,0.0431,0.0416,0.0466,0.0358,0.0345,0.0318,0.0336,0.0283,0.028,0.0242,0.0244,0.0245,0.035,0,0,0,0,0,0,0.0646,0.0643,0.0652,0.0606,0.0596,0.0594,0.0536,0.0522,0.0503,0.0495,0.0421,0.0407,0.0355,0.0324,0.0314,0.033,0.0277,0.0241,0.0243,0.0245,0.0345,0.0355,0.0363,0,0,0,0,0,0.0648,0.0676,0.0653,0.0649,0.061,0.0595,0.0587,0.0535,0.0505,0.0509,0.0456,0.0409,0.033,0.0322,0.031,0.0326,0.024,0.0242,0.0245,0.0341,0.0353,0.0363,0,0,0,0,0,0,0.0704,0.0668,0.0642,0.0659,0.0632,0.058,0.0582,0.0547,0.0509,0.0498,0.0425,0.0408,0.0387,0.0349,0.0343,0.032,0.0277,0.0278,0.0354,0.0365,0.0374,0.0398,0.0274,0,0,0,0,0,0.0721,0.0728,0.0686,0.0701,0.0691,0.0638,0.0625,0.0591,0.0551,0.0532,0.048,0.0429,0.0392,0.0373,0.0331,0.0328,0.0272,0.033,0.0339,0.0347,0.036,0.0292,0.0296,0.0254,0.0254,0.0254,0,0,0.0749,0.0729,0.0734,0.0712,0.0686,0.0682,0.0626,0.0617,0.0606,0.0526,0.0503,0.0458,0.0397,0.0383,0.0371,0.0353,0.0329,0.0351,0.0358,0.0366,0.0295,0.0299,0.0302,0.0256,0.0256,0.0255,0,0,0.0805,0.079,0.0807,0.0786,0.0753,0.0726,0.0728,0.0681,0.0651,0.0629,0.0567,0.0542,0.0481,0.0448,0.0421,0.0462,0.0376,0.0446,0.0515,0.045,0.0453,0.0454,0.0384,0.0379,0.0455,0.0456,0.0456,0,0.0835,0.0843,0.0813,0.0813,0.0803,0.0751,0.0761,0.0732,0.068,0.0677,0.0632,0.0568,0.0513,0.0507,0.0513,0.0484,0.0426,0.0478,0.0462,0.0462,0.0462,0.039,0.0382,0.0461,0.046,0.046,0.0459,0,0.0889,0.0887,0.09,0.0881,0.0877,0.0877,0.0835,0.0829,0.079,0.0761,0.0743,0.0672,0.064,0.0617,0.057,0.056,0.0511,0.0476,0.0434,0.0472,0.0394,0.0384,0.0469,0.0467,0.0465,0.0464,0,0,0.0961,0.094,0.0941,0.0933,0.0905,0.0908,0.0912,0.0906,0.0924,0.0865,0.0879,0.0811,0.0784,0.0753,0.0698,0.0644,0.0584,0.0567,0.0561,0.05,0.0428,0.0316,0.0294,0.0537,0.0536,0.0536,0.0372,0,0.1002,0.102,0.1002,0.102,0.1021,0.0988,0.1003,0.0995,0.098,0.0985,0.0921,0.091,0.0831,0.0824,0.0759,0.0634,0.0565,0.0632,0.0399,0.0392,0.0289,0.0281,0.0317,0.0167,0.0362,0.036,0.0359,0,0.1049,0.1048,0.1077,0.1075,0.1078,0.109,0.112,0.113,0.1134,0.1123,0.1112,0.1058,0.0998,0.0912,0.0718,0.076,0.0605,0.0493,0.0483,0.0338,0.0263,0.016,0.0141,0.0342,0.0343,0.0345,0.0346,0,0.11,0.11,0.1128,0.1121,0.1121,0.1139,0.1155,0.1178,0.1212,0.1224,0.1247,0.1166,0.1121,0.0938,0.0698,0.0706,0.0452,0.0434,0.0186,0.0176,0.0141,0.0129,0.0277,0.0277,0.0277,0.0278,0.0278,0,0.114,0.1151,0.115,0.1156,0.1197,0.1193,0.1265,0.1273,0.1324,0.1387,0.1326,0.1327,0.1118,0.095,0.0729,0.0416,0.0465,0.0191,0.0124,0.0176,0.017,0.0274,0.0276,0.0272,0.0273,0.0274,0.0275,0,0.1171,0.1176,0.1195,0.1207,0.1217,0.125,0.1322,0.1384,0.1424,0.1502,0.151,0.1434,0.121,0.0957,0.0646,0.0446,0.0168,0.0035,0.0103,0.0046,-0.0065,-0.0055,-0.0225,-0.0231,-0.0235,-0.0239,-0.0242,0,0.1174,0.1192,0.1228,0.1252,0.1252,0.1308,0.1362,0.1423,0.1499,0.1555,0.1587,0.1423,0.1267,0.0771,0.0424,0.0015,0.0014,-0.0213,-0.0194,-0.007,-0.0118,-0.0101,-0.0086,-0.0195,-0.0198,-0.02,-0.0201,0,0.1159,0.1189,0.1207,0.1269,0.1318,0.1403,0.1479,0.1554,0.1647,0.1693,0.1685,0.1559,0.111,0.0691,0.0155,-0.0088,-0.0135,-0.0273,-0.0165,-0.0082,-0.0058,-0.0099,-0.0082,-0.022,-0.0218,-0.0217,-0.0216,-0.0215,0.1132,0.1154,0.1202,0.1258,0.1348,0.1476,0.1564,0.166,0.1765,0.1783,0.1667,0.1434,0.104,0.0282,-0.005,-0.0341,-0.0343,-0.0447,-0.0433,-0.0418,-0.0395,-0.0381,-0.0599,-0.0599,-0.0599,-0.0599,-0.06,0,0.107,0.1124,0.1183,0.1274,0.1389,0.146,0.1631,0.1738,0.186,0.1721,0.1612,0.1127,0.0644,0.0256,-0.0201,-0.0512,-0.0447,-0.0582,-0.0418,-0.0401,-0.0386,-0.0352,-0.055,-0.055,-0.055,-0.055,0,0,0.1035,0.1074,0.1119,0.1269,0.1379,0.1579,0.1699,0.1855,0.1843,0.1658,0.1422,0.104,0.0619,0.0281,-0.0085,-0.0297,-0.0266,-0.0335,-0.0355,-0.0102,-0.0082,-0.0307,-0.0239,0,0,0,0,0]}],[{"header":{"parameterUnit":"m.s-1","parameterCategory":2,"la1":30.2991,"la2":30.254,"lo1":-89.0895,"lo2":-89.0444,"dx":0.0017,"dy":0.0017,"nx":28,"ny":28,"refTime":"2022-12-30T15:00:00:Z","depth":"4","parameterNumber":2,"parameterNumberName":"U-component_of_CURRENTS"},"data":[0,0,0,0,0,0,0,0,0,0,0,0,0,0,0,0,0,0,0,0,0,0,0,0,0,0,0,0,0,0,0,0,0,0,0,0,0,0,0,0,0,0,0,0,0,0,0,0,0,0,0,0,0,0,0,0,0,0,0.095,0.0951,0,0.1012,0.1012,0.1013,0.1062,0.1062,0.1063,0.1063,0.113,0.1132,0.1133,0,0,0,0,0,0,0,0,0,0,0,0,0,0.0879,0.088,0.095,0.0951,0.0951,0.1011,0.1012,0.1013,0.1062,0.1062,0.1063,0.1063,0.113,0.1132,0.1133,0,0,0,0,0,0,0,0,0,0,0,0,0,0.0924,0.088,0.095,0.0981,0.0984,0.1011,0.1012,0.1014,0.1062,0.1062,0.1063,0.1063,0.1129,0.1131,0.1134,0.1139,0,0,0.1141,0.1142,0,0,0,0,0,0,0,0,0.0921,0.0927,0.0976,0.0979,0.0983,0.1028,0.1012,0.1055,0.1062,0.1035,0.1063,0.1063,0.1095,0.11,0.1114,0.1142,0.1145,0.1141,0.1142,0.1143,0.1144,0,0,0,0,0,0,0,0.0918,0.0924,0.0977,0.0976,0.098,0.0993,0.1,0.1021,0.1063,0.1037,0.104,0.1044,0.1097,0.1111,0.1115,0.1146,0.1141,0.1143,0.1144,0.1145,0.1219,0.122,0,0,0,0,0,0,0.0906,0.0921,0.0975,0.0978,0.095,0.0994,0.1002,0.1015,0.1063,0.107,0.1043,0.1046,0.1107,0.1113,0.1118,0.1183,0.1143,0.1145,0.1147,0.1219,0.122,0.122,0,0,0,0,0,0,0.0904,0.091,0.0972,0.0949,0.0957,0.0994,0.1008,0.1015,0.1056,0.1067,0.1075,0.1079,0.1108,0.1115,0.1146,0.1183,0.1146,0.1149,0.1218,0.1219,0.122,0.1276,0,0,0,0,0,0,0.0902,0.091,0.0927,0.0948,0.0958,0.1003,0.1008,0.1016,0.1055,0.1059,0.11,0.1105,0.1109,0.1142,0.1148,0.1186,0.115,0.1217,0.1219,0.122,0.1273,0.1279,0.1283,0,0,0,0,0,0.0899,0.0911,0.0928,0.0934,0.0977,0.1003,0.1011,0.1039,0.1056,0.1077,0.1096,0.1105,0.1153,0.1144,0.1151,0.1191,0.1217,0.1218,0.122,0.1271,0.1278,0.1283,0,0,0,0,0,0,0.0887,0.0918,0.0936,0.0958,0.0987,0.1011,0.1032,0.1055,0.1089,0.1103,0.1113,0.1119,0.1169,0.1161,0.1151,0.1212,0.1187,0.119,0.1224,0.123,0.1235,0.1267,0.1152,0,0,0,0,0,0.0892,0.0917,0.0944,0.0967,0.0981,0.1015,0.1035,0.106,0.1084,0.1103,0.1126,0.1148,0.1176,0.1187,0.1212,0.1238,0.1223,0.1265,0.127,0.1275,0.1303,0.1305,0.1313,0.1225,0.1225,0.1225,0,0,0.0892,0.0915,0.0928,0.0967,0.0993,0.1021,0.103,0.107,0.1105,0.1103,0.1158,0.1178,0.1189,0.1227,0.1247,0.1226,0.1283,0.1276,0.128,0.1307,0.1307,0.1316,0.1324,0.1226,0.1225,0.1225,0,0,0.0898,0.0928,0.0949,0.0974,0.102,0.1044,0.1061,0.1103,0.1136,0.1185,0.1195,0.1214,0.1268,0.1264,0.1273,0.1311,0.132,0.1343,0.1387,0.1388,0.1396,0.1403,0.1357,0.136,0.1333,0.1333,0.1333,0,0.0899,0.0932,0.096,0.0985,0.1012,0.1056,0.1089,0.1125,0.1175,0.1202,0.1212,0.1284,0.1277,0.1315,0.1338,0.1323,0.1334,0.1365,0.1396,0.1403,0.1409,0.1361,0.1363,0.1336,0.1335,0.1335,0.1335,0,0.0909,0.095,0.0964,0.1016,0.105,0.1087,0.1134,0.1178,0.1228,0.1262,0.1333,0.1332,0.137,0.1373,0.1379,0.1429,0.1423,0.1412,0.1385,0.1422,0.1367,0.1369,0.134,0.1339,0.1338,0.1337,0,0,0.0868,0.0957,0.0962,0.1,0.1075,0.1098,0.1165,0.123,0.1281,0.1335,0.1393,0.1431,0.1455,0.1466,0.1468,0.1475,0.1494,0.1491,0.1489,0.1451,0.1501,0.145,0.1445,0.1526,0.1527,0.1529,0.1432,0,0.0872,0.0931,0.0977,0.1041,0.1079,0.1142,0.1203,0.1269,0.1334,0.1396,0.1418,0.1486,0.1484,0.1524,0.1531,0.1523,0.1511,0.1521,0.1468,0.1465,0.1421,0.145,0.1533,0.1432,0.1433,0.1433,0.1433,0,0.0853,0.0907,0.0979,0.1076,0.1097,0.1152,0.1257,0.1303,0.1396,0.1471,0.1537,0.1571,0.1601,0.1595,0.1586,0.1618,0.1579,0.1553,0.1548,0.1493,0.1418,0.1396,0.1435,0.1434,0.1434,0.1434,0.1434,0,0.0803,0.0893,0.0961,0.0991,0.1112,0.1169,0.1224,0.1329,0.1398,0.1516,0.1591,0.1639,0.1663,0.166,0.1618,0.1628,0.1597,0.1564,0.1461,0.1454,0.1503,0.1497,0.1551,0.1551,0.1551,0.1551,0.1552,0,0.0774,0.0822,0.0953,0.0989,0.1068,0.1152,0.1258,0.1326,0.146,0.1532,0.1621,0.1681,0.1702,0.1684,0.1642,0.1561,0.1595,0.1486,0.1444,0.152,0.1517,0.15,0.1495,0.1548,0.1548,0.1549,0.155,0,0.0704,0.0795,0.0872,0.1012,0.1054,0.1101,0.1269,0.1339,0.1484,0.1576,0.1627,0.1721,0.171,0.1685,0.1638,0.1563,0.1498,0.1452,0.1519,0.148,0.1336,0.1336,0.1314,0.1312,0.131,0.1309,0.1307,0,0.0678,0.0716,0.0857,0.0914,0.0989,0.1095,0.1172,0.1336,0.1404,0.1577,0.1586,0.1652,0.1688,0.1558,0.1557,0.1457,0.1438,0.1377,0.1387,0.136,0.1321,0.1324,0.1325,0.1304,0.1304,0.1304,0.1303,0,0.0619,0.0681,0.0747,0.0859,0.0955,0.1039,0.1144,0.1205,0.1366,0.1511,0.1553,0.1567,0.1539,0.1498,0.1446,0.1374,0.1414,0.1357,0.136,0.1369,0.1348,0.1311,0.1315,0.1297,0.1298,0.1298,0.1298,0,0.0575,0.0596,0.0698,0.0784,0.0889,0.0942,0.1023,0.1114,0.1208,0.1392,0.1391,0.1457,0.1525,0.1452,0.1401,0.1347,0.131,0.1248,0.1256,0.1263,0.1296,0.1266,0.1166,0,0,0,0,0,0.0524,0.0545,0.0615,0.0726,0.0828,0.0879,0.0982,0.1071,0.1219,0.1217,0.132,0.1307,0.1301,0.1322,0.1246,0.1334,0.1285,0.1239,0.121,0.1261,0.1268,0.1316,0,0,0,0,0,0,0.0497,0.0554,0.0578,0.0651,0.0716,0.0813,0.0863,0.0966,0.0971,0.1124,0.111,0.1239,0.1218,0.1333,0.1229,0.1231,0.1186,0.1286,0.1283,0.1257,0.1263,0.1269,0.1321,0,0,0,0,0]},{"header":{"parameterUnit":"m.s-1","parameterCategory":2,"la1":30.2991,"la2":30.254,"lo1":-89.0895,"lo2":-89.0444,"dx":0.0017,"dy":0.0017,"nx":28,"ny":28,"refTime":"2022-12-30T15:00:00:Z","depth":"4","parameterNumber":3,"parameterNumberName":"V-component_of_CURRENTS"},"data":[0,0,0,0,0,0,0,0,0,0,0,0,0,0,0,0,0,0,0,0,0,0,0,0,0,0,0,0,0,0,0,0,0,0,0,0,0,0,0,0,0,0,0,0,0,0,0,0,0,0,0,0,0,0,0,0,0,0,0.0075,0.0075,0,0.0041,0.004,0.004,0.0037,0.0037,0.0037,0.0038,-0.0002,-0.0003,-0.0005,0,0,0,0,0,0,0,0,0,0,0,0,0,0.0109,0.0109,0.0075,0.0075,0.0074,0.0041,0.004,0.004,0.0037,0.0037,0.0037,0.0038,-0.0002,-0.0003,-0.0005,0,0,0,0,0,0,0,0,0,0,0,0,0,0.0087,0.0109,0.0075,0.0069,0.0068,0.0041,0.004,0.004,0.0036,0.0037,0.0038,0.0038,-0.0001,-0.0003,-0.0005,-0.0029,0,0,-0.0012,-0.0012,0,0,0,0,0,0,0,0,0.0088,0.0086,0.007,0.0069,0.0068,0.0043,0.0038,0.0017,0.0036,0.0048,0.0038,0.0038,0.0012,0.0009,0.0002,-0.003,-0.0032,-0.0012,-0.0013,-0.0014,-0.0014,0,0,0,0,0,0,0,0.009,0.0087,0.0062,0.007,0.0068,0.0057,0.0055,0.0034,0.0028,0.0047,0.0047,0.0043,0.0012,0.0004,0.0001,-0.0033,-0.0012,-0.0013,-0.0015,-0.0016,-0.0108,-0.0109,0,0,0,0,0,0,0.0095,0.0088,0.0063,0.0061,0.0079,0.0056,0.0054,0.0051,0.0028,0.0025,0.0042,0.0043,0.0007,0.0003,-0.0001,-0.0045,-0.0014,-0.0016,-0.0017,-0.0107,-0.0108,-0.011,0,0,0,0,0,0,0.0096,0.0093,0.0064,0.0074,0.0069,0.0055,0.0052,0.005,0.0044,0.0024,0.0021,0.0039,0.0007,0.0002,-0.0029,-0.0046,-0.0017,-0.0019,-0.0105,-0.0107,-0.0109,-0.0124,0,0,0,0,0,0,0.0097,0.0093,0.0092,0.0074,0.0069,0.0046,0.0051,0.0049,0.004,0.0041,0.002,0.0017,0.0007,-0.0026,-0.0031,-0.0048,-0.002,-0.0104,-0.0106,-0.0108,-0.0122,-0.0126,-0.013,0,0,0,0,0,0.0098,0.0089,0.0092,0.0089,0.0068,0.0045,0.0041,0.0033,0.004,0.0031,0.0014,0.0018,-0.0044,-0.0029,-0.0035,-0.0053,-0.0103,-0.0106,-0.0108,-0.012,-0.0125,-0.013,0,0,0,0,0,0,0.0095,0.0087,0.009,0.0078,0.0064,0.0045,0.0034,0.0033,0.0013,0.0015,0.0002,-0.0004,-0.004,-0.0046,-0.0029,-0.0087,-0.0073,-0.0077,-0.008,-0.0085,-0.0089,-0.0081,-0.0022,0,0,0,0,0,0.0096,0.0092,0.0079,0.0069,0.0062,0.0051,0.0041,0.0037,0.0018,0.0011,-0.0007,-0.0028,-0.0057,-0.0069,-0.0095,-0.0125,-0.0136,-0.0141,-0.0145,-0.0148,-0.0147,-0.019,-0.0197,-0.0118,-0.0118,-0.0118,0,0,0.009,0.0087,0.0083,0.0069,0.0058,0.0046,0.0046,0.003,0.0019,0.0009,-0.0019,-0.0044,-0.0069,-0.0107,-0.0122,-0.0112,-0.0176,-0.0151,-0.0154,-0.0151,-0.0193,-0.0201,-0.0207,-0.012,-0.012,-0.012,0,0,0.008,0.0075,0.0072,0.0061,0.0049,0.0039,0.0036,0.0016,0.0005,-0.0024,-0.0039,-0.0077,-0.0111,-0.014,-0.0156,-0.0197,-0.0198,-0.0202,-0.0213,-0.0254,-0.0261,-0.0266,-0.0286,-0.0294,-0.0201,-0.0201,-0.0201,0,0.0074,0.0072,0.0064,0.0058,0.005,0.0038,0.003,0.0012,-0.0017,-0.0032,-0.0034,-0.0107,-0.0129,-0.0179,-0.0195,-0.0206,-0.0219,-0.019,-0.0258,-0.0264,-0.027,-0.0289,-0.0297,-0.0202,-0.0202,-0.0202,-0.0202,0,0.0066,0.0063,0.0055,0.005,0.0037,0.0025,0.0006,-0.0011,-0.0024,-0.0045,-0.0097,-0.014,-0.0178,-0.0199,-0.0209,-0.0264,-0.0256,-0.026,-0.0242,-0.0279,-0.0296,-0.0304,-0.0203,-0.0203,-0.0203,-0.0202,0,0,0.0054,0.0054,0.0051,0.0052,0.0035,0.0023,0.0002,-0.0024,-0.0037,-0.0083,-0.0112,-0.0179,-0.02,-0.0221,-0.0248,-0.0288,-0.0343,-0.0288,-0.029,-0.03,-0.0419,-0.0375,-0.038,-0.0356,-0.0358,-0.0359,-0.0413,0,0.0051,0.0053,0.0047,0.0035,0.0034,0.0017,0.0002,-0.0025,-0.0053,-0.0089,-0.0144,-0.0183,-0.0208,-0.0226,-0.0277,-0.033,-0.0366,-0.0327,-0.0389,-0.0391,-0.0342,-0.0389,-0.0364,-0.0419,-0.0421,-0.0423,-0.0424,0,0.0046,0.0052,0.0054,0.0045,0.0041,0.0032,0.001,-0.0012,-0.0062,-0.0079,-0.0133,-0.0172,-0.0247,-0.0254,-0.0367,-0.0339,-0.0378,-0.0416,-0.0419,-0.0377,-0.0362,-0.0379,-0.0438,-0.0437,-0.0436,-0.0435,-0.0434,0,0.0055,0.0048,0.0057,0.0053,0.0045,0.0041,0.0027,-0.0009,-0.0015,-0.0075,-0.0082,-0.018,-0.0221,-0.03,-0.0379,-0.0375,-0.0491,-0.0494,-0.049,-0.0486,-0.05,-0.0493,-0.0564,-0.0564,-0.0563,-0.0563,-0.0563,0,0.0056,0.0055,0.0066,0.007,0.0077,0.0056,0.0056,0.003,0.0007,0.0002,-0.0077,-0.0102,-0.0234,-0.0311,-0.0382,-0.046,-0.0494,-0.0499,-0.0504,-0.0504,-0.0498,-0.0505,-0.0497,-0.0565,-0.0565,-0.0565,-0.0564,0,0.0062,0.0068,0.0079,0.0083,0.0087,0.0089,0.0099,0.0101,0.007,0.0063,0.0051,-0.0053,-0.016,-0.0274,-0.0409,-0.0451,-0.0534,-0.0544,-0.0526,-0.0528,-0.05,-0.0493,-0.0557,-0.0556,-0.0555,-0.0554,-0.0554,0,0.007,0.0081,0.0101,0.0128,0.0134,0.0147,0.0166,0.0141,0.0152,0.01,0.01,-0.0008,-0.008,-0.0244,-0.0373,-0.0506,-0.0513,-0.0547,-0.054,-0.0504,-0.0503,-0.0497,-0.0491,-0.0552,-0.0552,-0.0552,-0.0552,0,0.0089,0.0098,0.0118,0.0181,0.0209,0.0228,0.0247,0.0261,0.0234,0.0213,0.0157,0.0058,-0.0064,-0.0222,-0.0324,-0.0418,-0.0529,-0.0539,-0.0541,-0.0535,-0.05,-0.0498,-0.0493,-0.0549,-0.0549,-0.055,-0.055,0,0.0114,0.0137,0.0184,0.0235,0.0273,0.0295,0.0293,0.0303,0.0298,0.0247,0.0225,0.0082,-0.0016,-0.0174,-0.0271,-0.0363,-0.0384,-0.0397,-0.0407,-0.0412,-0.0353,-0.0285,-0.0281,0,0,0,0,0,0.0148,0.0189,0.0241,0.0299,0.0338,0.0349,0.035,0.0344,0.032,0.0303,0.027,0.0166,-0.0003,-0.0106,-0.0188,-0.0263,-0.0405,-0.0359,-0.0426,-0.0534,-0.0537,-0.0489,0,0,0,0,0,0,0.0174,0.023,0.0253,0.0342,0.0389,0.0421,0.0407,0.0386,0.0368,0.033,0.0229,0.0185,0.0001,0.0062,-0.0172,-0.0207,-0.0252,-0.0447,-0.0448,-0.0532,-0.0535,-0.0538,-0.0489,0,0,0,0,0]}]]